Regional Weather Roundup
Issued by NWS

Home | Current Version | Previous Version | Graphics & Text | Print | Product List | Glossary On
Versions: 1 2 3 4 5 6 7 8 9 10 11 12 13 14 15 16 17 18 19 20 21 22 23 24 25 26 27 28 29 30 31 32 33 34 35 36 37 38 39 40 41 42 43 44 45 46 47 48 49 50
000
ASUS43 KOAX 111510
RWRNE

WEATHER ROUNDUP FOR NEBRASKA
NATIONAL WEATHER SERVICE OMAHA NE
900 AM CST MON DEC 11 2017

NOTES: SATELLITE DATA IS BEING USED TO AUGMENT CLOUD COVER ABOVE
       12000 FEET.
       "FAIR" INDICATES FEW OR NO CLOUDS BELOW 12,000 FEET WITH NO
       SIGNIFICANT WEATHER AND/OR OBSTRUCTIONS TO VISIBILITY.


NEZ001>004-019>022-054>056-111600-
NEBRASKA PANHANDLE

CITY           SKY/WX    TMP DP  RH WIND       PRES   REMARKS
SCOTTSBLUFF    CLEAR     35  10  35 W17       30.30R WCI  25
ALLIANCE       CLEAR     39  16  39 W21G33    30.24R WCI  29
CHADRON        PTCLDY    43  16  33 W24G35    30.25R
GORDON         FAIR      39  19  43 NW16G23   30.19R WCI  31
KIMBALL        CLOUDY    39   6  25 W14       30.32R WCI  30
SIDNEY         CLEAR     35   9  33 W13       30.28R WCI  26
$$

NEZ057>060-069>072-079>082-111600-
SOUTHWEST NEBRASKA

CITY           SKY/WX    TMP DP  RH WIND       PRES   REMARKS
NORTH PLATTE   CLOUDY    33  21  61 NW6       30.18R WCI  28
IMPERIAL       CLOUDY    39   9  29 W14       30.23S WCI  31
LEXINGTON      CLOUDY    42  16  34 NW17      30.13S
MCCOOK         CLOUDY    42  13  30 W15       30.20R
OGALLALA       CLOUDY    41  14  33 NW13      30.22R
$$

NEZ005>010-023>029-035>040-094-111600-
NORTH CENTRAL NEBRASKA

CITY           SKY/WX    TMP DP  RH WIND       PRES   REMARKS
VALENTINE      PTCLDY    42  23  46 N18G28    30.14R
AINSWORTH      MOCLDY    40  25  55 NW21G28   30.13R WCI  31
BROKEN BOW     CLOUDY    49  15  25 NW21G30   30.10R
O`NEILL        CLOUDY    42  28  56 NW29G36   30.05R
ORD            CLEAR     45  18  34 NW24G31   30.07R
THEDFORD       CLOUDY    46  19  34 NW29G44   30.14R
$$

NEZ041-046>049-061>064-073>077-083>087-111600-
SOUTH CENTRAL NEBRASKA

CITY           SKY/WX    TMP DP  RH WIND       PRES   REMARKS
GRAND ISLAND   SUNNY     48  17  29 NW17      30.07R
AURORA         SUNNY     48  18  30 NW30G39   30.05R
HASTINGS       CLOUDY    45  15  30 W20G26    30.07R
HEBRON         CLOUDY    51  15  24 W12G17    30.05F
HOLDREGE       CLOUDY    46  19  33 W16       30.12S
KEARNEY        MOCLDY    43  16  33 W13       30.10R
YORK           MOSUNNY   46  19  34 NW24G32   30.02F
$$

NEZ011>018-030>034-042>045-111600-
NORTHEAST NEBRASKA

CITY           SKY/WX    TMP DP  RH WIND       PRES   REMARKS
NORFOLK        CLOUDY    45  27  49 NW29G38   29.97R
ALBION         CLEAR     45  25  46 NW29G45   30.02R
BLAIR          SUNNY     44  24  44 NW16G23   29.93S
COLUMBUS       MOSUNNY   45  24  43 NW26G33   30.00R
FREMONT        SUNNY     46  26  45 NW24G35   29.97R
TEKAMAH        MOSUNNY   45  26  47 NW22G29   29.94R
WAYNE          MOCLDY    45  26  47 NW28G38   29.95R
$$

NEZ050>053-065>068-078-088>093-111600-
SOUTHEAST NEBRASKA

CITY           SKY/WX    TMP DP  RH WIND       PRES   REMARKS
LINCOLN        SUNNY     47  18  31 NW13      30.02R
OMAHA EPPLEY   MOSUNNY   47  24  40 NW25G35   29.93R
BEATRICE       MOSUNNY   48  19  31 NW16G22   30.02R
FALLS CITY     CLOUDY    47  18  31 NW20      29.96R
NEBRASKA CITY  MOSUNNY   47  22  37 NW18G24   29.96R
PLATTSMOUTH    SUNNY     44  21  40 NW16G22   29.95R
$$

NEZ044-045-051>053-067-111600-
OMAHA AREA

CITY           SKY/WX    TMP DP  RH WIND       PRES   REMARKS
OMAHA EPPLEY   MOSUNNY   47  24  40 NW25G35   29.93R
BLAIR          SUNNY     44  24  44 NW16G23   29.93S
FREMONT        SUNNY     46  26  45 NW24G35   29.97R
MILLARD        SUNNY     47  23  38 NW15G21   29.96S
OFFUTT AFB     SUNNY     45  20  38 NW14      29.95R
PLATTSMOUTH    SUNNY     44  21  40 NW16G22   29.95R
WAHOO          FAIR      48  22  36 NW23G35   29.97R
$$



USA.gov is the U.S. government's official web portal to all federal, state and local government web resources and services.